SCP
0 0 0 0 0 0 0 0 0 0 0 0 0 0 0 0 0 0 -0 0 -0 -0 0 0 0 -0 0 0 0 0 0 0 0 0 0 0 0 0 0 0 -0 0 -0 0 0 0 0 0 0
0 0 0 0 0 -0 0 0 0 0 0 0 0 0 0 0 0 -0 -0 0 -0 -0 0 0 0 0 0 0 0 0 0 0 0 0 0 0 0 -0 -0 -0 -0 -0 0 0 0 0 0 0 0
0 0 0 0 0 0 0 0 0 0 0 0 0 0 0 0 -0 -0 0 0 -0 -0 0 0 -0 -0 0 0 0 0 0 0 0 0 0 0 0 0 -0 -0 -0 -0 -0 0 0 0 0 0 0
0 0 0 0 0 0 0 0 0 0 0 0 0 0 0 0 0 0 -0 -0 -0 -0 0 -0 -0 -0 -0 0 0 0 0 0 0 0 0 0 0 0 0 -0 -0 -0 -0 -0 -0 0 0 0 -0
0 0 0 0 0 0 0 0 0 0 0 0 0 0 0 -0 -0 -0 -0 -0 -0 -0 -0 -0 -0 -0 -0 0 0 0 0 0 0 0 0 0 0 0 0 -0 -0 -0 -0 -0 -0 0 0 -0 -0
0 0 -0 -0 0 0 0 0 0 0 0 0 0 0 0 0 -0 -0 -0 -0 -0 -0 -0 -0 -0 -0 -0 -0 -0 0 0 0 0 0 0 0 -0 0 -0 -0 -0 -0 -0 -0 -0 -0 -0 -0 -0
0 0 0 0 0 0 0 0 0 0 0 0 0 0 0 -0 -0 -0 0 0 -0 -0 -0 -0 0 -0 -0 -0 -0 0 0 0 0 0 0 0 -0 -0 -0 -0 -0 -0 -0 -0 -0 -0 -0 -0 -0
0 0 0 0 0 0 0 0 0 0 0 0 0 0 0 -0 0 -0 0 -0 -0 -0 -0 0 0 0 0 0 -0 0 0 0 0 0 0 0 0 -0 -0 -0 -0 0 -0 -0 -0 -0 -0 -0 -0
0 -0 0 0 0 0 0 0 0 0 0 0 0 0 -0 -0 -0 -0 0 0 -0 -0 0 0 0 0 0 0 0 -0 -0 0 0 0 -0 0 -0 -0 -0 -0 -0 0 0 -0 -0 -0 -0 -0 -0
-0 -0 -0 0 0 0 0 0 0 0 0 0 -0 -0 -0 -0 -0 -0 0 0 -0 -0 -0 0 0 0 0 0 -0 -0 -0 -0 -0 -0 -0 0 0 0 0 0 0 0 0 0 -0 -0 -0 -0 -0
-0 -0 -0 0 0 0 0 0 0 0 -0 0 -0 -0 -0 0 0 -0 0 -0 -0 -0 -0 -0 0 0 0 0 0 -0 -0 -0 -0 0 -0 0 0 0 0 0 -0 -0 -0 -0 -0 -0 -0 -0 -0
-0 0 -0 0 0 0 0 0 0 0 -0 0 -0 -0 -0 0 0 0 -0 -0 -0 -0 -0 -0 0 0 0 0 0 0 -0 -0 -0 0 0 0 0 0 0 -0 0 0 -0 -0 -0 -0 -0 -0 -0
-0 -0 0 0 0 0 0 0 0 0 0 0 0 0 0 -0 -0 -0 -0 -0 -0 -0 -0 -0 0 0 -0 -0 -0 -0 -0 0 0 0 0 0 0 0 0 0 0 0 0 0 0 -0 0 0 -0
-0 0 0 0 0 0 1 0 0 0 0 -0 -0 -0 0 0 0 0 -0 -0 -0 -0 -0 0 -0 -0 -0 -0 -0 -0 -0 -0 -0 0 0 0 0 0 0 0 0 0 -0 0 -0 -0 -0 -0 -0
-0 0 0 0 0 0 1 0 1 0 0 0 0 0 -0 0 0 -0 -0 -0 -0 -0 -0 0 -0 -0 -0 -0 -0 -0 0 0 0 0 0 0 0 0 0 0 0 -0 -0 0 0 -0 -0 0 0
-0 -0 0 0 0 0 0 0 0 0 0 0 0 0 -0 0 -0 0 0 0 -0 -0 -0 -0 -0 0 -0 -0 -0 -0 -0 0 0 0 0 0 0 0 0 0 0 0 0 0 0 0 0 0 0
-0 -0 -0 0 0 0 0 0 0 1 0 0 0 0 -0 0 0 0 -0 -0 -0 -0 -0 0 0 0 0 0 0 -0 -0 -0 0 -0 0 0 0 0 0 0 0 0 0 0 0 0 0 -0 0
0 0 -0 0 0 0 0 0 0 0 0 0 0 0 0 0 0 0 -0 -0 -0 -0 -0 0 0 0 0 -0 -0 -0 0 -0 0 -0 -0 -0 -0 -0 -0 0 0 0 0 0 0 0 0 -0 0
0 0 -0 0 0 0 0 0 0 0 0 0 0 0 0 -0 0 -0 0 -0 -0 -0 -0 0 0 0 0 0 0 0 0 0 0 0 -0 -0 -0 -0 -0 -0 0 -0 0 -0 -0 -0 -0 -0 -0
0 0 0 -0 -0 -0 0 0 0 0 0 0 0 0 0 0 -0 -0 -0 0 -0 -0 -0 -0 0 0 0 0 0 0 -0 0 0 0 -0 0 -0 -0 -0 0 0 0 0 0 0 0 -0 -0 0
0 0 0 -0 -0 -0 0 0 0 0 0 -0 -0 0 -0 -0 0 -0 0 -0 0 -0 -0 0 0 0 0 0 0 0 0 0 0 0 -0 -0 0 0 0 0 0 0 0 0 0 0 0 0 0
0 0 0 -0 0 0 0 0 0 0 0 0 -0 0 0 0 0 0 -0 0 -0 0 -0 0 0 0 0 0 0 0 0 0 0 0 -0 -0 -0 -0 0 0 0 0 0 0 0 0 0 0 0
0 0 0 0 0 0 0 0 0 0 0 0 0 0 0 -0 0 0 -0 0 -0 -0 0 0 0 -0 0 -0 -0 -0 -0 0 -0 -0 -0 -0 -0 -0 -0 0 -0 0 0 0 0 0 0 0 0
0 0 0 0 0 0 0 0 0 0 0 0 0 0 0 -0 0 0 0 -0 0 -0 0 0 0 0 0 0 -0 0 -0 -0 -0 -0 -0 -0 -0 -0 -0 -0 0 0 0 0 0 0 0 0 0
0 0 0 0 0 0 0 0 0 0 0 0 0 0 0 0 0 0 0 -0 -0 -0 0 0 0 0 0 0 0 -0 -0 -0 -0 -0 -0 -0 -0 -0 -0 -0 -0 0 -0 0 0 0 0 0 0
0 0 0 0 0 0 0 0 0 0 0 0 -0 -0 0 0 0 0 0 0 0 0 -0 -0 0 0 0 -0 0 -0 0 -0 -0 -0 -0 -0 0 -0 -0 -0 -0 0 0 0 0 0 0 0 0
0 0 0 0 0 0 0 0 0 0 1 0 -0 -0 0 0 0 0 -0 -0 0 0 -0 0 0 0 0 0 -0 -0 -0 0 0 0 0 0 0 0 0 -0 -0 0 0 0 0 0 0 0 0
0 0 0 0 0 0 0 0 0 0 1 0 0 0 0 0 0 0 0 0 0 0 0 0 0 0 0 0 0 0 0 0 0 0 0 0 0 0 0 0 0 0 0 -0 -0 0 0 0 0
0 0 0 0 0 0 0 0 0 0 -0 0 0 -0 0 0 0 0 0 -0 0 0 0 0 0 0 0 0 0 0 0 0 0 0 0 0 0 0 0 0 0 0 0 -0 0 0 0 0 0
0 0 0 0 0 0 0 0 0 0 0 0 0 0 0 0 0 0 -0 -0 0 0 0 0 0 0 0 0 0 0 0 0 0 0 0 0 0 0 0 0 0 0 0 0 0 0 0 0 0
Wind_Speed_500mb
10 15 13 8 9 10 5 2 4 4 4 6 32 8 8 7 4 5 39 69 67 63 57 48 43 40 37 34 31 31 27 26 24 26 26 24 24 21 20 19 20 21 22 21 20 22 26 30 32
15 15 11 6 10 8 9 2 8 1 10 30 20 16 6 5 5 26 70 67 67 63 56 48 42 39 35 30 28 28 25 22 21 22 22 20 19 19 16 17 18 21 22 21 18 21 22 28 32
14 14 9 8 6 4 4 6 9 14 23 8 8 12 5 5 16 67 63 70 66 59 51 43 39 37 32 26 26 24 21 18 16 17 18 18 16 14 16 16 18 19 19 19 19 20 24 26 29
11 4 7 8 3 4 1 12 14 13 6 9 20 12 12 8 43 50 64 67 61 54 46 39 37 34 31 28 25 21 18 15 13 13 14 15 15 12 16 17 18 16 16 17 19 19 22 26 28
10 3 8 7 7 4 6 19 25 5 9 11 10 7 16 19 36 48 59 61 55 51 43 37 35 34 30 27 21 17 15 13 10 9 9 12 13 13 15 18 17 17 16 15 15 18 20 25 28
6 5 10 4 6 4 6 27 21 7 12 19 25 22 9 6 29 50 56 54 49 47 42 37 35 32 27 21 19 15 13 11 8 7 7 8 11 14 13 17 17 15 16 16 17 17 18 24 26
9 7 4 4 3 3 6 23 9 18 14 8 36 10 10 27 36 51 57 51 47 42 40 38 35 29 25 21 16 15 13 12 10 8 6 7 7 10 14 15 14 15 16 17 18 19 20 23 25
8 7 4 5 7 3 14 8 17 21 8 33 28 13 15 39 43 49 53 49 46 41 38 37 34 29 26 22 18 16 14 14 12 9 7 8 8 8 11 13 16 16 15 16 16 17 20 22 26
6 8 3 11 12 7 24 10 11 7 28 11 13 20 49 51 44 51 54 49 46 43 39 37 34 27 24 22 18 17 17 17 14 12 8 10 5 7 8 11 14 17 18 16 14 17 19 21 24
7 6 11 13 16 12 17 18 17 10 14 17 36 38 58 54 47 54 58 52 49 44 40 37 33 27 24 21 19 17 17 17 14 8 12 4 6 12 10 10 18 18 19 19 19 20 21 25 28
3 7 7 7 26 33 26 17 8 30 6 23 50 66 60 54 48 48 52 47 45 42 41 39 34 28 24 21 19 17 17 15 12 11 5 10 13 14 11 10 12 15 16 18 18 14 23 25 28
1 17 4 23 27 30 18 30 14 4 10 33 42 53 61 57 54 44 49 48 44 43 38 36 33 30 25 22 21 18 17 14 11 14 5 6 6 9 15 14 12 14 15 15 16 17 21 25 27
8 6 10 25 30 35 29 17 14 19 29 37 50 50 53 55 55 49 44 49 43 40 35 35 34 31 27 23 20 22 21 13 8 10 7 5 7 8 3 9 14 11 13 13 13 16 20 24 27
10 23 18 25 28 24 28 10 8 22 37 47 56 59 51 53 55 54 44 51 44 34 34 35 32 30 31 26 21 22 19 15 10 9 9 4 9 11 6 5 7 13 7 10 12 10 14 21 25
14 16 14 12 14 11 28 10 5 41 45 50 54 59 60 55 57 59 46 49 36 31 32 37 31 28 30 26 24 19 14 8 9 9 10 10 7 8 2 3 7 9 11 6 4 5 7 12 19
9 11 7 5 13 20 6 7 4 36 41 44 45 49 54 53 59 60 53 47 44 29 21 27 30 29 25 23 24 20 16 15 11 10 10 8 5 6 12 8 2 8 6 6 9 7 2 9 11
16 6 5 2 9 8 4 4 7 29 31 27 31 36 45 49 54 53 50 47 42 34 17 27 23 29 27 24 22 18 17 17 17 13 11 8 7 5 2 9 6 3 6 3 6 1 3 5 9
6 4 5 6 4 15 13 7 11 8 24 26 18 25 40 38 46 50 51 49 47 32 24 19 25 20 25 29 26 23 24 20 21 19 15 14 11 9 10 11 15 10 4 4 2 1 4 8 7
6 8 7 3 5 13 9 10 11 7 7 25 21 22 19 12 15 34 41 44 42 43 31 22 27 24 27 31 31 30 27 28 27 23 21 21 22 18 15 11 16 19 17 13 14 15 10 5 9
2 8 2 9 10 12 4 7 6 5 7 23 18 22 4 8 6 11 18 35 34 38 43 32 31 27 29 30 31 30 25 26 31 31 28 28 27 25 24 21 15 19 20 22 20 17 15 13 13
6 8 10 11 13 14 6 10 8 4 10 20 21 7 7 9 10 11 6 12 22 29 36 42 21 25 32 34 34 33 31 30 34 36 34 33 32 31 29 27 27 22 28 26 26 25 24 23 22
7 8 14 24 8 7 6 7 7 9 14 12 18 6 6 12 17 9 3 12 16 13 19 30 24 34 31 40 39 42 39 41 33 38 43 42 40 36 34 36 29 31 31 31 29 32 33 33 30
14 10 13 7 12 10 8 5 8 4 8 9 14 8 17 15 22 23 10 9 11 11 16 30 25 30 19 29 36 43 51 46 47 47 46 44 43 43 44 40 38 41 39 36 35 34 33 31 29
13 14 17 11 8 5 2 7 8 8 10 10 17 16 7 29 19 7 10 8 5 13 11 27 39 29 19 22 12 29 47 50 54 53 54 54 52 48 42 42 41 43 43 42 36 36 36 37 34
12 12 6 7 7 10 5 6 14 10 11 11 27 32 36 29 24 14 9 2 5 10 11 20 30 30 37 16 13 35 39 47 54 58 60 55 48 48 51 49 44 43 44 41 39 39 38 40 39
10 16 12 11 9 8 6 9 8 8 15 18 24 23 21 31 31 21 22 19 15 10 4 17 18 39 40 38 23 29 37 41 44 37 33 35 43 46 42 55 54 44 39 42 44 43 44 44 44
9 5 9 16 8 5 4 8 11 7 2 7 17 9 25 36 35 34 29 25 31 32 29 18 13 10 11 42 50 55 45 35 36 36 32 31 29 30 42 41 41 44 50 51 52 54 46 40 44
5 11 7 7 9 8 8 8 10 18 21 15 17 22 32 39 38 35 30 25 25 26 25 20 16 11 8 8 11 13 16 17 19 25 28 26 30 26 31 47 52 48 48 54 52 54 57 56 54
1 5 15 12 6 10 2 12 11 28 31 30 32 43 44 45 45 40 32 27 24 21 16 12 8 5 5 8 12 17 22 25 27 28 29 30 30 32 36 42 44 41 47 52 57 54 54 52 49
2 10 10 10 8 2 5 12 11 14 32 43 45 51 49 43 39 37 32 25 18 12 11 11 10 7 6 9 15 22 28 34 38 39 38 36 33 34 36 37 39 39 40 52 56 58 54 54 54
Wind_Direction_500mb
13 352 0 3 52 64 356 60 133 81 31 54 138 138 148 72 160 197 148 158 161 153 154 153 149 145 142 137 134 128 125 117 118 115 113 116 116 121 120 115 117 117 124 118 113 116 114 122 123
5 2 17 23 78 55 298 150 136 66 127 112 106 104 61 80 103 140 151 158 163 156 156 156 154 154 152 148 142 135 130 123 118 115 113 117 117 122 125 130 122 119 123 119 121 124 124 127 127
352 355 0 83 92 152 179 57 119 129 137 89 97 63 54 68 129 142 153 158 164 161 159 159 158 159 160 159 150 140 132 126 122 112 112 113 118 127 138 131 137 134 129 122 128 131 132 133 130
349 341 47 72 18 7 128 129 148 138 112 86 113 63 58 24 128 148 152 159 164 165 162 163 163 163 163 158 153 146 139 133 127 117 111 112 117 125 144 138 146 138 136 130 137 141 143 142 138
356 43 52 67 354 11 71 147 145 119 104 78 110 62 92 117 138 153 154 161 165 164 165 168 167 164 165 164 163 161 157 150 142 132 113 116 117 110 136 139 147 147 146 142 145 156 158 153 152
53 62 54 66 342 6 41 158 142 106 102 111 94 103 113 154 160 157 159 162 168 168 168 171 172 174 177 182 176 177 180 176 168 157 146 138 133 136 143 149 156 154 155 161 162 172 172 169 170
97 69 126 106 323 1 154 156 148 124 123 92 130 84 126 158 161 159 161 165 170 174 174 179 181 188 193 198 206 198 203 198 199 198 191 176 160 156 159 158 165 169 163 160 167 176 183 189 189
123 89 100 175 208 239 130 97 150 135 63 140 135 154 163 165 160 162 165 169 173 178 183 187 193 201 209 205 207 212 207 207 209 217 219 203 195 177 172 180 180 176 178 176 171 176 184 196 203
156 71 179 186 158 193 140 113 121 162 125 79 204 154 158 157 159 162 170 177 182 186 192 196 201 202 206 207 202 208 207 210 213 211 216 230 201 199 186 192 201 188 182 183 188 192 198 203 214
103 113 229 197 172 167 124 119 132 123 107 70 92 133 155 157 159 165 176 180 189 191 195 198 200 202 203 208 206 204 210 210 207 193 194 152 199 210 221 215 208 208 199 196 200 209 208 210 213
173 199 205 169 169 144 122 113 134 127 64 165 142 148 160 164 166 169 177 183 185 192 198 198 199 204 205 207 211 207 209 207 184 176 199 205 229 223 207 194 189 209 215 213 208 213 219 216 217
146 241 243 138 141 130 121 127 125 145 155 159 156 159 167 174 176 175 185 188 191 198 207 203 202 207 205 206 208 206 210 193 163 190 98 131 163 222 221 211 213 216 217 216 222 229 224 222 220
132 338 105 124 135 119 124 115 120 108 151 157 160 171 182 185 189 192 194 198 201 204 209 206 204 206 202 195 202 190 187 175 168 202 231 14 226 208 221 241 232 233 230 237 247 241 227 222 219
0 91 82 109 100 116 113 84 108 152 160 165 173 180 192 199 200 202 204 204 205 206 203 188 196 197 193 193 185 186 200 204 209 213 231 235 86 126 81 73 217 234 240 246 240 230 234 228 218
126 78 49 69 93 114 107 15 137 164 172 172 185 190 197 205 209 212 212 208 207 207 203 196 187 186 195 195 198 196 202 232 206 234 230 227 214 233 274 347 79 118 100 352 94 199 211 208 216
102 66 106 241 115 178 57 242 77 170 172 186 195 198 204 211 215 215 221 219 214 222 202 189 196 201 203 199 200 212 215 219 224 254 257 233 236 283 241 268 131 126 54 52 116 111 139 209 220
17 64 343 261 172 134 82 199 129 181 196 189 196 209 217 222 227 229 229 224 224 229 215 192 196 206 209 215 213 210 222 231 230 235 244 259 246 267 286 256 271 7 8 7 139 79 211 212 244
327 6 337 205 26 52 67 40 63 92 194 205 196 203 217 227 231 239 238 230 230 237 232 206 210 225 221 221 227 230 236 237 243 241 246 259 273 276 273 267 249 269 313 330 286 282 207 285 281
209 215 176 87 22 77 56 67 18 319 208 226 227 225 243 282 268 230 239 241 239 237 233 221 223 223 226 226 233 241 258 250 250 263 263 247 253 265 269 289 245 249 268 276 280 287 255 285 299
290 302 160 76 14 84 110 52 316 289 265 242 269 270 195 215 191 190 218 229 238 239 239 235 234 238 240 238 246 247 258 270 262 264 263 264 262 259 259 261 275 257 263 269 272 284 275 292 309
261 209 187 140 108 54 92 348 346 309 341 289 289 305 305 74 168 190 218 244 232 233 236 244 246 246 247 250 248 250 258 266 263 261 268 274 274 267 267 264 259 264 264 276 264 272 280 287 293
323 222 130 151 103 167 39 261 302 347 332 317 323 28 136 133 99 81 179 263 275 269 256 263 253 246 253 249 248 252 261 270 276 278 279 278 271 272 268 267 266 267 273 273 277 269 274 275 279
247 53 110 134 93 96 355 80 256 343 314 276 288 199 152 99 100 59 51 236 293 316 204 199 206 230 247 251 263 259 264 274 276 278 278 280 277 275 268 272 261 266 266 267 267 269 272 277 276
160 78 46 48 86 41 122 124 268 200 219 287 315 307 180 28 87 102 20 3 285 293 247 235 225 231 218 240 292 279 266 270 273 275 274 277 276 272 272 281 276 272 270 270 273 269 267 267 270
87 70 19 25 17 219 111 77 248 244 239 250 280 359 6 37 93 120 41 327 267 273 275 253 227 236 224 266 293 284 276 272 277 282 276 269 272 269 274 278 276 277 279 279 271 270 269 264 263
166 157 156 182 188 243 128 234 263 213 246 253 258 350 42 84 118 105 81 75 60 46 164 217 218 221 224 228 218 266 298 263 277 287 291 276 270 264 274 271 269 266 270 271 272 274 265 258 259
180 127 161 104 15 62 238 289 316 247 108 183 266 76 107 117 128 117 100 86 72 74 75 97 128 134 209 227 242 263 273 266 279 286 289 282 288 283 242 267 273 275 261 262 265 266 262 265 261
137 146 79 20 129 228 286 262 232 175 192 194 181 181 150 142 126 120 116 97 82 72 74 80 82 100 169 208 221 248 255 261 274 285 291 295 295 282 248 265 270 264 265 258 259 260 257 262 268
128 80 55 108 85 153 242 263 227 187 185 181 187 181 166 157 147 140 129 122 111 95 82 78 86 119 194 226 249 262 270 277 283 287 289 287 283 282 280 275 273 270 260 261 261 260 263 259 259
350 155 133 113 207 130 154 271 326 189 183 179 185 185 176 167 161 149 135 129 119 91 65 57 59 42 8 318 295 287 286 285 282 281 283 285 282 279 280 281 280 270 259 255 258 258 259 260 260
Wind_Speed_850mb
10 15 13 8 9 10 5 2 4 4 4 6 32 8 8 7 4 5 39 69 67 63 57 48 43 40 37 34 31 31 27 26 24 26 26 24 24 21 20 19 20 21 22 21 20 22 26 30 32
15 15 11 6 10 8 9 2 8 1 10 30 20 16 6 5 5 26 70 67 67 63 56 48 42 39 35 30 28 28 25 22 21 22 22 20 19 19 16 17 18 21 22 21 18 21 22 28 32
14 14 9 8 6 4 4 6 9 14 23 8 8 12 5 5 16 67 63 70 66 59 51 43 39 37 32 26 26 24 21 18 16 17 18 18 16 14 16 16 18 19 19 19 19 20 24 26 29
11 4 7 8 3 4 1 12 14 13 6 9 20 12 12 8 43 50 64 67 61 54 46 39 37 34 31 28 25 21 18 15 13 13 14 15 15 12 16 17 18 16 16 17 19 19 22 26 28
10 3 8 7 7 4 6 19 25 5 9 11 10 7 16 19 36 48 59 61 55 51 43 37 35 34 30 27 21 17 15 13 10 9 9 12 13 13 15 18 17 17 16 15 15 18 20 25 28
6 5 10 4 6 4 6 27 21 7 12 19 25 22 9 6 29 50 56 54 49 47 42 37 35 32 27 21 19 15 13 11 8 7 7 8 11 14 13 17 17 15 16 16 17 17 18 24 26
9 7 4 4 3 3 6 23 9 18 14 8 36 10 10 27 36 51 57 51 47 42 40 38 35 29 25 21 16 15 13 12 10 8 6 7 7 10 14 15 14 15 16 17 18 19 20 23 25
8 7 4 5 7 3 14 8 17 21 8 33 28 13 15 39 43 49 53 49 46 41 38 37 34 29 26 22 18 16 14 14 12 9 7 8 8 8 11 13 16 16 15 16 16 17 20 22 26
6 8 3 11 12 7 24 10 11 7 28 11 13 20 49 51 44 51 54 49 46 43 39 37 34 27 24 22 18 17 17 17 14 12 8 10 5 7 8 11 14 17 18 16 14 17 19 21 24
7 6 11 13 16 12 17 18 17 10 14 17 36 38 58 54 47 54 58 52 49 44 40 37 33 27 24 21 19 17 17 17 14 8 12 4 6 12 10 10 18 18 19 19 19 20 21 25 28
3 7 7 7 26 33 26 17 8 30 6 23 50 66 60 54 48 48 52 47 45 42 41 39 34 28 24 21 19 17 17 15 12 11 5 10 13 14 11 10 12 15 16 18 18 14 23 25 28
1 17 4 23 27 30 18 30 14 4 10 33 42 53 61 57 54 44 49 48 44 43 38 36 33 30 25 22 21 18 17 14 11 14 5 6 6 9 15 14 12 14 15 15 16 17 21 25 27
8 6 10 25 30 35 29 17 14 19 29 37 50 50 53 55 55 49 44 49 43 40 35 35 34 31 27 23 20 22 21 13 8 10 7 5 7 8 3 9 14 11 13 13 13 16 20 24 27
10 23 18 25 28 24 28 10 8 22 37 47 56 59 51 53 55 54 44 51 44 34 34 35 32 30 31 26 21 22 19 15 10 9 9 4 9 11 6 5 7 13 7 10 12 10 14 21 25
14 16 14 12 14 11 28 10 5 41 45 50 54 59 60 55 57 59 46 49 36 31 32 37 31 28 30 26 24 19 14 8 9 9 10 10 7 8 2 3 7 9 11 6 4 5 7 12 19
9 11 7 5 13 20 6 7 4 36 41 44 45 49 54 53 59 60 53 47 44 29 21 27 30 29 25 23 24 20 16 15 11 10 10 8 5 6 12 8 2 8 6 6 9 7 2 9 11
16 6 5 2 9 8 4 4 7 29 31 27 31 36 45 49 54 53 50 47 42 34 17 27 23 29 27 24 22 18 17 17 17 13 11 8 7 5 2 9 6 3 6 3 6 1 3 5 9
6 4 5 6 4 15 13 7 11 8 24 26 18 25 40 38 46 50 51 49 47 32 24 19 25 20 25 29 26 23 24 20 21 19 15 14 11 9 10 11 15 10 4 4 2 1 4 8 7
6 8 7 3 5 13 9 10 11 7 7 25 21 22 19 12 15 34 41 44 42 43 31 22 27 24 27 31 31 30 27 28 27 23 21 21 22 18 15 11 16 19 17 13 14 15 10 5 9
2 8 2 9 10 12 4 7 6 5 7 23 18 22 4 8 6 11 18 35 34 38 43 32 31 27 29 30 31 30 25 26 31 31 28 28 27 25 24 21 15 19 20 22 20 17 15 13 13
6 8 10 11 13 14 6 10 8 4 10 20 21 7 7 9 10 11 6 12 22 29 36 42 21 25 32 34 34 33 31 30 34 36 34 33 32 31 29 27 27 22 28 26 26 25 24 23 22
7 8 14 24 8 7 6 7 7 9 14 12 18 6 6 12 17 9 3 12 16 13 19 30 24 34 31 40 39 42 39 41 33 38 43 42 40 36 34 36 29 31 31 31 29 32 33 33 30
14 10 13 7 12 10 8 5 8 4 8 9 14 8 17 15 22 23 10 9 11 11 16 30 25 30 19 29 36 43 51 46 47 47 46 44 43 43 44 40 38 41 39 36 35 34 33 31 29
13 14 17 11 8 5 2 7 8 8 10 10 17 16 7 29 19 7 10 8 5 13 11 27 39 29 19 22 12 29 47 50 54 53 54 54 52 48 42 42 41 43 43 42 36 36 36 37 34
12 12 6 7 7 10 5 6 14 10 11 11 27 32 36 29 24 14 9 2 5 10 11 20 30 30 37 16 13 35 39 47 54 58 60 55 48 48 51 49 44 43 44 41 39 39 38 40 39
10 16 12 11 9 8 6 9 8 8 15 18 24 23 21 31 31 21 22 19 15 10 4 17 18 39 40 38 23 29 37 41 44 37 33 35 43 46 42 55 54 44 39 42 44 43 44 44 44
9 5 9 16 8 5 4 8 11 7 2 7 17 9 25 36 35 34 29 25 31 32 29 18 13 10 11 42 50 55 45 35 36 36 32 31 29 30 42 41 41 44 50 51 52 54 46 40 44
5 11 7 7 9 8 8 8 10 18 21 15 17 22 32 39 38 35 30 25 25 26 25 20 16 11 8 8 11 13 16 17 19 25 28 26 30 26 31 47 52 48 48 54 52 54 57 56 54
1 5 15 12 6 10 2 12 11 28 31 30 32 43 44 45 45 40 32 27 24 21 16 12 8 5 5 8 12 17 22 25 27 28 29 30 30 32 36 42 44 41 47 52 57 54 54 52 49
2 10 10 10 8 2 5 12 11 14 32 43 45 51 49 43 39 37 32 25 18 12 11 11 10 7 6 9 15 22 28 34 38 39 38 36 33 34 36 37 39 39 40 52 56 58 54 54 54
Wind_Direction_850mb
13 352 0 3 52 64 356 60 133 81 31 54 138 138 148 72 160 197 148 158 161 153 154 153 149 145 142 137 134 128 125 117 118 115 113 116 116 121 120 115 117 117 124 118 113 116 114 122 123
5 2 17 23 78 55 298 150 136 66 127 112 106 104 61 80 103 140 151 158 163 156 156 156 154 154 152 148 142 135 130 123 118 115 113 117 117 122 125 130 122 119 123 119 121 124 124 127 127
352 355 0 83 92 152 179 57 119 129 137 89 97 63 54 68 129 142 153 158 164 161 159 159 158 159 160 159 150 140 132 126 122 112 112 113 118 127 138 131 137 134 129 122 128 131 132 133 130
349 341 47 72 18 7 128 129 148 138 112 86 113 63 58 24 128 148 152 159 164 165 162 163 163 163 163 158 153 146 139 133 127 117 111 112 117 125 144 138 146 138 136 130 137 141 143 142 138
356 43 52 67 354 11 71 147 145 119 104 78 110 62 92 117 138 153 154 161 165 164 165 168 167 164 165 164 163 161 157 150 142 132 113 116 117 110 136 139 147 147 146 142 145 156 158 153 152
53 62 54 66 342 6 41 158 142 106 102 111 94 103 113 154 160 157 159 162 168 168 168 171 172 174 177 182 176 177 180 176 168 157 146 138 133 136 143 149 156 154 155 161 162 172 172 169 170
97 69 126 106 323 1 154 156 148 124 123 92 130 84 126 158 161 159 161 165 170 174 174 179 181 188 193 198 206 198 203 198 199 198 191 176 160 156 159 158 165 169 163 160 167 176 183 189 189
123 89 100 175 208 239 130 97 150 135 63 140 135 154 163 165 160 162 165 169 173 178 183 187 193 201 209 205 207 212 207 207 209 217 219 203 195 177 172 180 180 176 178 176 171 176 184 196 203
156 71 179 186 158 193 140 113 121 162 125 79 204 154 158 157 159 162 170 177 182 186 192 196 201 202 206 207 202 208 207 210 213 211 216 230 201 199 186 192 201 188 182 183 188 192 198 203 214
103 113 229 197 172 167 124 119 132 123 107 70 92 133 155 157 159 165 176 180 189 191 195 198 200 202 203 208 206 204 210 210 207 193 194 152 199 210 221 215 208 208 199 196 200 209 208 210 213
173 199 205 169 169 144 122 113 134 127 64 165 142 148 160 164 166 169 177 183 185 192 198 198 199 204 205 207 211 207 209 207 184 176 199 205 229 223 207 194 189 209 215 213 208 213 219 216 217
146 241 243 138 141 130 121 127 125 145 155 159 156 159 167 174 176 175 185 188 191 198 207 203 202 207 205 206 208 206 210 193 163 190 98 131 163 222 221 211 213 216 217 216 222 229 224 222 220
132 338 105 124 135 119 124 115 120 108 151 157 160 171 182 185 189 192 194 198 201 204 209 206 204 206 202 195 202 190 187 175 168 202 231 14 226 208 221 241 232 233 230 237 247 241 227 222 219
0 91 82 109 100 116 113 84 108 152 160 165 173 180 192 199 200 202 204 204 205 206 203 188 196 197 193 193 185 186 200 204 209 213 231 235 86 126 81 73 217 234 240 246 240 230 234 228 218
126 78 49 69 93 114 107 15 137 164 172 172 185 190 197 205 209 212 212 208 207 207 203 196 187 186 195 195 198 196 202 232 206 234 230 227 214 233 274 347 79 118 100 352 94 199 211 208 216
102 66 106 241 115 178 57 242 77 170 172 186 195 198 204 211 215 215 221 219 214 222 202 189 196 201 203 199 200 212 215 219 224 254 257 233 236 283 241 268 131 126 54 52 116 111 139 209 220
17 64 343 261 172 134 82 199 129 181 196 189 196 209 217 222 227 229 229 224 224 229 215 192 196 206 209 215 213 210 222 231 230 235 244 259 246 267 286 256 271 7 8 7 139 79 211 212 244
327 6 337 205 26 52 67 40 63 92 194 205 196 203 217 227 231 239 238 230 230 237 232 206 210 225 221 221 227 230 236 237 243 241 246 259 273 276 273 267 249 269 313 330 286 282 207 285 281
209 215 176 87 22 77 56 67 18 319 208 226 227 225 243 282 268 230 239 241 239 237 233 221 223 223 226 226 233 241 258 250 250 263 263 247 253 265 269 289 245 249 268 276 280 287 255 285 299
290 302 160 76 14 84 110 52 316 289 265 242 269 270 195 215 191 190 218 229 238 239 239 235 234 238 240 238 246 247 258 270 262 264 263 264 262 259 259 261 275 257 263 269 272 284 275 292 309
261 209 187 140 108 54 92 348 346 309 341 289 289 305 305 74 168 190 218 244 232 233 236 244 246 246 247 250 248 250 258 266 263 261 268 274 274 267 267 264 259 264 264 276 264 272 280 287 293
323 222 130 151 103 167 39 261 302 347 332 317 323 28 136 133 99 81 179 263 275 269 256 263 253 246 253 249 248 252 261 270 276 278 279 278 271 272 268 267 266 267 273 273 277 269 274 275 279
247 53 110 134 93 96 355 80 256 343 314 276 288 199 152 99 100 59 51 236 293 316 204 199 206 230 247 251 263 259 264 274 276 278 278 280 277 275 268 272 261 266 266 267 267 269 272 277 276
160 78 46 48 86 41 122 124 268 200 219 287 315 307 180 28 87 102 20 3 285 293 247 235 225 231 218 240 292 279 266 270 273 275 274 277 276 272 272 281 276 272 270 270 273 269 267 267 270
87 70 19 25 17 219 111 77 248 244 239 250 280 359 6 37 93 120 41 327 267 273 275 253 227 236 224 266 293 284 276 272 277 282 276 269 272 269 274 278 276 277 279 279 271 270 269 264 263
166 157 156 182 188 243 128 234 263 213 246 253 258 350 42 84 118 105 81 75 60 46 164 217 218 221 224 228 218 266 298 263 277 287 291 276 270 264 274 271 269 266 270 271 272 274 265 258 259
180 127 161 104 15 62 238 289 316 247 108 183 266 76 107 117 128 117 100 86 72 74 75 97 128 134 209 227 242 263 273 266 279 286 289 282 288 283 242 267 273 275 261 262 265 266 262 265 261
137 146 79 20 129 228 286 262 232 175 192 194 181 181 150 142 126 120 116 97 82 72 74 80 82 100 169 208 221 248 255 261 274 285 291 295 295 282 248 265 270 264 265 258 259 260 257 262 268
128 80 55 108 85 153 242 263 227 187 185 181 187 181 166 157 147 140 129 122 111 95 82 78 86 119 194 226 249 262 270 277 283 287 289 287 283 282 280 275 273 270 260 261 261 260 263 259 259
350 155 133 113 207 130 154 271 326 189 183 179 185 185 176 167 161 149 135 129 119 91 65 57 59 42 8 318 295 287 286 285 282 281 283 285 282 279 280 281 280 270 259 255 258 258 259 260 260